#timestamp,LO_Frequency,Hit,StdDev 
1634896815.1,286047001.1,N
1634896835.9,286046998.2,N
1634896855.7,286046998.3,N
1634896875.5,286047000.6,N
1634896895.4,286047000.6,N
1634896915.2,286047000.2,N
1634896935.1,286047000.7,N
1634896936.0,286047000.7,N
1634896955.8,286047001.0,N
1634896975.6,286047000.3,N
1634896995.5,286047000.5,N
1634897015.3,286047001.2,N
1634897035.1,286047001.2,N
1634897055.9,286047001.2,N
1634897075.7,286046998.5,N
1634897095.6,286047000.0,N
1634897115.4,286047000.5,N
1634897135.2,286047000.9,N
1634897155.1,286047002.8,N
1634897156.0,286047002.8,N
1634897175.8,286047002.7,N
1634897195.7,286047002.7,N
1634897215.5,286047000.6,N
1634897235.3,286046999.5,N
1634897255.2,286046999.6,N
1634897275.0,286046999.5,N
1634897275.9,286046999.5,N
1634897295.7,286046998.9,N
1634897315.6,286046998.4,N
1634897335.4,286047000.8,N
1634897355.3,286046998.2,N
1634897375.1,286047000.5,N
1634897395.8,286047000.5,N
1634897415.7,286047001.2,N
1634897435.5,286046997.1,N
1634897455.4,286046999.1,N
1634897475.2,286046999.0,N
1634897495.0,286047001.1,N
1634897495.9,286047001.1,N
1634897515.8,286046998.4,N
1634897535.6,286046998.6,N
1634897555.5,286046998.2,N
1634897575.3,286046998.5,N
1634897595.1,286047000.8,N
1634897615.9,286047001.2,N
1634897635.7,286046999.0,N
1634897655.5,286046998.7,N
1634897675.4,286046998.4,N
1634897695.2,286046998.6,N
1634897715.1,286046998.2,N
1634897716.0,286046998.2,N
1634897735.8,286047001.2,N
1634897755.6,286046998.2,N
1634897775.5,286046998.1,N
1634897795.3,286046998.2,N
1634897815.1,286046998.1,N
1634897835.9,286046999.4,N
1634897855.7,286047000.8,N
1634897875.6,286047000.0,N
1634897895.4,286047000.9,N
1634897915.2,286046999.9,N
1634897935.1,286047000.3,N
1634897936.0,286047000.3,N
1634897955.8,286047000.5,N
1634897975.7,286047000.4,N
1634897995.5,286046999.7,N
1634898015.3,286047000.3,N
1634898035.2,286046999.7,N
1634898055.0,286047002.4,N
1634898055.9,286047002.4,N
1634898075.8,286046999.9,N
1634898095.6,286046999.8,N
1634898115.4,286047000.3,N
1634898135.3,286046999.8,N
1634898155.1,286047000.1,N
1634898175.9,286047000.3,N
1634898195.7,286047000.5,N
1634898215.5,286047002.3,N
1634898235.4,286047002.8,N
1634898255.2,286047002.8,N
1634898275.0,286047002.7,N
1634898275.9,286047002.7,N
1634898295.8,286047004.4,Y
1634898315.6,286047000.0,P
1634898335.5,286047000.5,N
1634898355.3,286047001.0,P
1634898375.1,286047000.6,N
1634898395.9,286046998.1,Y
1634898415.7,286047000.4,P
1634898435.5,286047001.0,P
1634898455.4,286047000.2,N
1634898475.2,286047000.6,N
1634898495.1,286047000.5,N
1634898496.0,286047000.5,N
1634898515.8,286047000.4,N
1634898535.6,286047000.1,N
1634898555.5,286046998.5,Y
1634898575.3,286046997.3,P
1634898595.2,286046996.9,N
1634898615.9,286046997.8,N
1634898635.7,286046997.1,N
1634898655.6,286046997.9,N
1634898675.4,286046997.4,N
1634898695.3,286046997.8,N
1634898715.1,286046997.5,N
1634898716.0,286046997.5,N
1634898735.8,286046994.9,Y
1634898755.7,286046998.9,P
1634898775.5,286046998.2,P
1634898795.3,286046998.4,P
1634898815.2,286046999.3,N
1634898835.0,286046998.4,Y
1634898835.9,286046998.4,P
1634898855.8,286047000.5,P
1634898875.6,286047000.3,N
1634898895.4,286047002.7,N
1634898915.3,286047000.1,N
1634898935.1,286047001.2,N
1634898955.9,286046998.8,N
1634898975.7,286046999.3,N
1634898995.5,286046995.0,Y
1634899015.4,286046997.3,P
1634899035.2,286046998.0,N
1634899055.0,286046996.0,P
1634899055.9,286046996.0,N
1634899075.8,286046996.0,N
1634899095.6,286046995.8,N
1634899115.5,286046996.0,N
1634899135.3,286046996.2,N
1634899155.1,286046995.4,Y
1634899175.9,286047001.0,P
1634899195.7,286046998.4,N
1634899215.6,286046998.3,N
1634899235.4,286046998.4,N
1634899255.2,286046999.6,N
1634899275.1,286046998.6,N
1634899276.0,286046998.6,N
1634899295.8,286046998.2,N
1634899315.6,286047001.0,N
1634899335.5,286046998.2,N
1634899355.3,286047001.0,N
1634899375.2,286046998.4,N
1634899395.9,286046999.1,N
1634899415.7,286046998.6,N
1634899435.6,286046999.4,N
1634899455.4,286046999.6,N
1634899475.2,286046998.9,N
1634899495.1,286046998.9,N
1634899496.0,286046998.9,N
1634899515.8,286046998.1,N
1634899535.7,286047000.8,N
1634899555.5,286047000.5,N
1634899575.3,286047000.9,N
1634899595.2,286046998.2,N
1634899615.0,286047000.1,N
1634899615.9,286047000.1,N
1634899635.7,286047000.9,N
1634899655.6,286046999.1,N
1634899675.4,286046998.7,N
1634899695.3,286046998.7,N
1634899715.1,286046998.6,N
1634899716.0,286046998.6,N
1634899735.8,286046998.2,N
1634899755.7,286046998.4,N
1634899775.5,286046996.7,Y
1634899795.3,286046998.4,P
1634899815.2,286046999.2,N
1634899835.0,286046998.9,N
1634899835.9,286046998.9,Y
1634899855.8,286047000.3,P
1634899875.6,286047002.4,P
1634899895.4,286047002.2,N
1634899915.3,286047001.9,N
1634899935.1,286047002.3,N
1634899955.9,286047002.2,N
1634899975.7,286047002.5,N
1634899995.5,286047001.4,N
1634900015.4,286047003.9,Y
1634900035.2,286047000.4,P
1634900055.0,286047000.1,N
1634900055.9,286047000.1,N
1634900075.8,286046999.9,N
1634900095.6,286047000.5,N
1634900115.5,286047001.0,N
1634900135.3,286046998.4,N
1634900155.1,286046998.5,N
1634900175.9,286047000.7,N
1634900195.7,286046998.1,N
1634900215.5,286046998.5,N
1634900235.4,286046998.6,N
1634900255.2,286046996.5,Y
1634900275.1,286046998.5,P
1634900276.0,286046998.5,N
1634900295.8,286047000.6,N
1634900315.6,286047000.9,N
1634900335.5,286046999.9,N
1634900355.3,286047000.9,N
1634900375.2,286047000.5,N
1634900395.9,286047001.1,N
